[[{"header":{"parameterUnit":"m.s-1","parameterCategory":1,"la1":30.2991,"la2":30.254,"lo1":-89.0895,"lo2":-89.0444,"dy":0.0017,"dx":0.0017,"nx":28,"ny":28,"refTime":"2026-01-04T03:00:00:Z","depth":0,"parameterNumber":2,"parameterNumberName":"U-component_of_WINDS"},"data":[0,0,0,0,0,0,0,0,0,0,0,0,0,0,0,0,0,0,0,0,0,0,0,0,0,0,0,0,0,0,0,0,0,0,0,0,0,0,0,0,0,0,0,0,0,0,0,0,0,0,0,0,0,0,0,0,0,0,-2.4466,-2.4467,0,-2.4532,-2.4533,-2.4534,-2.4514,-2.4513,-2.4511,-2.451,-2.4578,-2.4581,-2.4584,0,0,0,0,0,0,0,0,0,0,0,0,0,-2.4324,-2.4327,-2.4466,-2.4467,-2.4468,-2.4532,-2.4533,-2.4534,-2.4514,-2.4512,-2.4511,-2.4509,-2.4577,-2.458,-2.4584,0,0,0,0,0,0,0,0,0,0,0,0,0,-2.4387,-2.4328,-2.4466,-2.4466,-2.4466,-2.4532,-2.4533,-2.4534,-2.4514,-2.4512,-2.451,-2.4508,-2.4575,-2.458,-2.4585,-2.4654,0,0,-2.4599,-2.4601,0,0,0,0,0,0,0,0,-2.4384,-2.4393,-2.4465,-2.4466,-2.4467,-2.4513,-2.4508,-2.4574,-2.4515,-2.4496,-2.451,-2.4507,-2.4558,-2.4564,-2.4581,-2.4657,-2.466,-2.4599,-2.4602,-2.4604,-2.4605,0,0,0,0,0,0,0,-2.4379,-2.439,-2.4492,-2.4466,-2.4467,-2.4463,-2.4469,-2.452,-2.4538,-2.4498,-2.4496,-2.4505,-2.4558,-2.4576,-2.4582,-2.4661,-2.4599,-2.4603,-2.4606,-2.4608,-2.48,-2.4802,0,0,0,0,0,0,-2.4374,-2.4386,-2.449,-2.4494,-2.4419,-2.4467,-2.4474,-2.45,-2.4537,-2.4541,-2.4506,-2.4503,-2.4569,-2.4577,-2.4584,-2.4669,-2.4604,-2.4608,-2.4611,-2.4798,-2.48,-2.4803,0,0,0,0,0,0,-2.4371,-2.4384,-2.4487,-2.444,-2.4453,-2.4471,-2.45,-2.4502,-2.4521,-2.4544,-2.4547,-2.4522,-2.4568,-2.4578,-2.4637,-2.4671,-2.461,-2.4615,-2.4795,-2.4799,-2.4802,-2.484,0,0,0,0,0,0,-2.4367,-2.4383,-2.4409,-2.4441,-2.4455,-2.4539,-2.4503,-2.4505,-2.4529,-2.4526,-2.4559,-2.4562,-2.4567,-2.4631,-2.4642,-2.4677,-2.4618,-2.4792,-2.4797,-2.4801,-2.4835,-2.4844,-2.4851,0,0,0,0,0,-2.4362,-2.4417,-2.4411,-2.4424,-2.4489,-2.4541,-2.455,-2.4554,-2.4531,-2.4559,-2.4573,-2.4561,-2.4666,-2.4637,-2.4649,-2.4686,-2.479,-2.4795,-2.48,-2.4832,-2.4842,-2.4851,0,0,0,0,0,0,-2.439,-2.4421,-2.4415,-2.4481,-2.4509,-2.4538,-2.4572,-2.4565,-2.4599,-2.4595,-2.4598,-2.4606,-2.4667,-2.4682,-2.465,-2.4756,-2.4725,-2.4733,-2.4744,-2.4754,-2.4762,-2.4758,-2.4622,0,0,0,0,0,-2.4403,-2.4443,-2.4469,-2.4525,-2.4539,-2.4553,-2.4576,-2.4577,-2.4606,-2.4617,-2.4636,-2.4665,-2.4704,-2.473,-2.4767,-2.4837,-2.4845,-2.4869,-2.4877,-2.4883,-2.489,-2.493,-2.4941,-2.482,-2.482,-2.482,0,0,-2.4432,-2.4454,-2.4479,-2.4531,-2.4552,-2.4594,-2.4563,-2.4608,-2.4639,-2.4624,-2.4682,-2.4697,-2.4729,-2.4794,-2.4824,-2.4809,-2.4925,-2.489,-2.4895,-2.4899,-2.4936,-2.4948,-2.4958,-2.4824,-2.4823,-2.4823,0,0,-2.4506,-2.4526,-2.4576,-2.4598,-2.4631,-2.464,-2.4652,-2.4683,-2.4692,-2.475,-2.474,-2.4777,-2.4844,-2.4868,-2.4888,-2.4972,-2.4963,-2.4984,-2.5026,-2.5064,-2.5074,-2.5082,-2.5113,-2.5124,-2.4991,-2.4991,-2.4991,0,-2.4538,-2.46,-2.4603,-2.4649,-2.4672,-2.4661,-2.4711,-2.4733,-2.4776,-2.4793,-2.4775,-2.486,-2.488,-2.4952,-2.4972,-2.4989,-2.5003,-2.498,-2.5072,-2.508,-2.5088,-2.5118,-2.5129,-2.4993,-2.4993,-2.4993,-2.4992,0,-2.4638,-2.4681,-2.4717,-2.476,-2.4787,-2.4835,-2.4846,-2.4873,-2.4872,-2.4883,-2.4942,-2.4967,-2.5009,-2.5026,-2.5025,-2.5097,-2.5087,-2.5071,-2.5039,-2.5102,-2.513,-2.5141,-2.4997,-2.4996,-2.4995,-2.4995,0,0,-2.4731,-2.4775,-2.4788,-2.4808,-2.4843,-2.4877,-2.4925,-2.4966,-2.499,-2.502,-2.5061,-2.5119,-2.5104,-2.5128,-2.5129,-2.5162,-2.5228,-2.5142,-2.5143,-2.5158,-2.5311,-2.5324,-2.5337,-2.5222,-2.5224,-2.5226,-2.5309,0,-2.4809,-2.4893,-2.4897,-2.4974,-2.5015,-2.5004,-2.5046,-2.5073,-2.5084,-2.5121,-2.5133,-2.5175,-2.5151,-2.5166,-2.5198,-2.5213,-2.5259,-2.5207,-2.5261,-2.5263,-2.5254,-2.5352,-2.5365,-2.5443,-2.532,-2.5322,-2.5323,0,-2.4911,-2.4945,-2.5026,-2.5056,-2.5074,-2.5111,-2.515,-2.5184,-2.5215,-2.5221,-2.5248,-2.5244,-2.5294,-2.526,-2.5329,-2.5293,-2.5315,-2.5326,-2.5329,-2.5335,-2.5297,-2.5361,-2.5467,-2.5479,-2.534,-2.5339,-2.5337,0,-2.4972,-2.5038,-2.5095,-2.5112,-2.5149,-2.5176,-2.5192,-2.522,-2.5245,-2.5279,-2.5296,-2.5335,-2.5357,-2.5388,-2.5395,-2.537,-2.5465,-2.5431,-2.5472,-2.5472,-2.5493,-2.5492,-2.5605,-2.5506,-2.5505,-2.5505,-2.5505,0,-2.5059,-2.5109,-2.5123,-2.5159,-2.5215,-2.5219,-2.5275,-2.529,-2.5315,-2.5353,-2.5346,-2.5382,-2.539,-2.5428,-2.5434,-2.5491,-2.55,-2.5507,-2.5509,-2.5509,-2.5508,-2.5524,-2.5519,-2.5508,-2.5508,-2.5507,-2.5506,0,-2.5137,-2.5149,-2.5211,-2.5241,-2.5249,-2.529,-2.5315,-2.5349,-2.536,-2.5409,-2.5421,-2.5438,-2.5482,-2.5493,-2.5545,-2.555,-2.5617,-2.5613,-2.5607,-2.5607,-2.5648,-2.5644,-2.5776,-2.5794,-2.5682,-2.5683,-2.5684,0,-2.5193,-2.5231,-2.5265,-2.5291,-2.5309,-2.5349,-2.5375,-2.5381,-2.5408,-2.5446,-2.5476,-2.5519,-2.5554,-2.5626,-2.5643,-2.5684,-2.5681,-2.5724,-2.5687,-2.5686,-2.5683,-2.5681,-2.5685,-2.5732,-2.5733,-2.5734,-2.5734,0,-2.529,-2.5294,-2.5331,-2.5371,-2.5402,-2.5433,-2.5463,-2.5484,-2.5494,-2.5525,-2.557,-2.5598,-2.5652,-2.5695,-2.5736,-2.5753,-2.5746,-2.5746,-2.5758,-2.5759,-2.5755,-2.5759,-2.5628,-2.5743,-2.5742,-2.5742,-2.5741,-2.5741,-2.5359,-2.5393,-2.5423,-2.5465,-2.5488,-2.5517,-2.5551,-2.5566,-2.5604,-2.5648,-2.5649,-2.5699,-2.5729,-2.5783,-2.5803,-2.5842,-2.5829,-2.5846,-2.585,-2.5855,-2.5859,-2.5747,-2.5849,-2.5849,-2.5849,-2.5849,-2.5849,0,-2.5457,-2.5476,-2.5514,-2.5557,-2.559,-2.558,-2.5613,-2.5641,-2.5685,-2.5714,-2.5749,-2.5801,-2.5844,-2.5865,-2.5907,-2.5934,-2.5932,-2.5945,-2.5944,-2.5948,-2.5868,-2.5854,-2.5946,-2.5946,-2.5946,-2.5946,-2.5946,-2.5946,-2.5512,-2.557,-2.5577,-2.5646,-2.5665,-2.5714,-2.5733,-2.576,-2.5783,-2.5842,-2.5877,-2.589,-2.5916,-2.596,-2.5999,-2.6004,-2.602,-2.6035,-2.6039,-2.5964,-2.5954,-2.5944,-2.5931,-2.6039,-2.6039,-2.6116,-2.6117,-2.6118]},{"header":{"parameterUnit":"m.s-1","parameterCategory":1,"la1":30.2991,"la2":30.254,"lo1":-89.0895,"lo2":-89.0444,"dy":0.0017,"dx":0.0017,"nx":28,"ny":28,"refTime":"2026-01-04T03:00:00:Z","depth":0,"parameterNumber":3,"parameterNumberName":"V-component_of_WINDS"},"data":[0,0,0,0,0,0,0,0,0,0,0,0,0,0,0,0,0,0,0,0,0,0,0,0,0,0,0,0,0,0,0,0,0,0,0,0,0,0,0,0,0,0,0,0,0,0,0,0,0,0,0,0,0,0,0,0,0,0,-2.1438,-2.1438,0,-2.1424,-2.1424,-2.1424,-2.1359,-2.1358,-2.1356,-2.1355,-2.1345,-2.1346,-2.1347,0,0,0,0,0,0,0,0,0,0,0,0,0,-2.1411,-2.1412,-2.1438,-2.1438,-2.1438,-2.1424,-2.1424,-2.1424,-2.136,-2.1358,-2.1356,-2.1354,-2.1345,-2.1346,-2.1347,0,0,0,0,0,0,0,0,0,0,0,0,0,-2.1413,-2.1412,-2.1438,-2.1404,-2.1401,-2.1424,-2.1424,-2.1424,-2.136,-2.1358,-2.1355,-2.1353,-2.1344,-2.1346,-2.1348,-2.1404,0,0,-2.1353,-2.1354,0,0,0,0,0,0,0,0,-2.1413,-2.1414,-2.1409,-2.1406,-2.1403,-2.1391,-2.1411,-2.1417,-2.1361,-2.1376,-2.1355,-2.1352,-2.1363,-2.1363,-2.1365,-2.1404,-2.1403,-2.1353,-2.1354,-2.1355,-2.1355,0,0,0,0,0,0,0,-2.1413,-2.1414,-2.1433,-2.1409,-2.1405,-2.139,-2.1388,-2.1412,-2.1382,-2.1374,-2.1369,-2.1368,-2.136,-2.1364,-2.1365,-2.1403,-2.1353,-2.1355,-2.1356,-2.1356,-2.1488,-2.149,0,0,0,0,0,0,-2.1417,-2.1415,-2.1433,-2.1432,-2.1402,-2.1393,-2.139,-2.1397,-2.1382,-2.1377,-2.137,-2.1365,-2.1362,-2.1363,-2.1364,-2.1429,-2.1355,-2.1357,-2.1358,-2.1485,-2.1488,-2.1491,0,0,0,0,0,0,-2.1417,-2.1419,-2.1434,-2.1422,-2.1423,-2.1395,-2.1404,-2.1398,-2.1401,-2.1379,-2.1374,-2.1379,-2.136,-2.1361,-2.1394,-2.1428,-2.1357,-2.1359,-2.1482,-2.1486,-2.149,-2.1561,0,0,0,0,0,0,-2.1416,-2.142,-2.144,-2.1423,-2.1424,-2.1464,-2.1406,-2.14,-2.1404,-2.1397,-2.1386,-2.1382,-2.1358,-2.1392,-2.1396,-2.1429,-2.136,-2.1479,-2.1484,-2.1488,-2.1556,-2.1567,-2.1576,0,0,0,0,0,-2.1416,-2.1462,-2.1442,-2.1444,-2.1449,-2.1466,-2.1466,-2.1437,-2.1407,-2.1428,-2.1413,-2.1382,-2.1423,-2.1396,-2.14,-2.1434,-2.1477,-2.1483,-2.1488,-2.1551,-2.1565,-2.1576,0,0,0,0,0,0,-2.1486,-2.1459,-2.1436,-2.1478,-2.1475,-2.1455,-2.148,-2.1453,-2.1459,-2.1453,-2.1418,-2.1415,-2.1454,-2.1447,-2.1417,-2.1488,-2.1445,-2.1451,-2.1491,-2.1504,-2.1514,-2.1516,-2.1362,0,0,0,0,0,-2.1506,-2.1521,-2.1497,-2.1536,-2.1535,-2.1508,-2.1515,-2.1493,-2.1488,-2.1487,-2.1474,-2.1472,-2.1484,-2.1494,-2.1504,-2.1554,-2.1551,-2.1579,-2.1589,-2.1598,-2.1605,-2.1631,-2.1643,-2.1509,-2.1509,-2.1509,0,0,-2.1548,-2.1535,-2.1547,-2.155,-2.1545,-2.1562,-2.1508,-2.1528,-2.1541,-2.149,-2.152,-2.1511,-2.1506,-2.1548,-2.1566,-2.1544,-2.1641,-2.1605,-2.1612,-2.1614,-2.1638,-2.1651,-2.1662,-2.1513,-2.1512,-2.1511,0,0,-2.1634,-2.1626,-2.1657,-2.1652,-2.1644,-2.1625,-2.1633,-2.1617,-2.1609,-2.1638,-2.16,-2.1615,-2.1637,-2.1635,-2.1637,-2.1721,-2.1693,-2.1725,-2.178,-2.1806,-2.1816,-2.1826,-2.1857,-2.1868,-2.1732,-2.1732,-2.1732,0,-2.1688,-2.1712,-2.1678,-2.17,-2.1703,-2.1655,-2.1688,-2.1685,-2.1682,-2.1685,-2.166,-2.1686,-2.1679,-2.172,-2.174,-2.1743,-2.1752,-2.1727,-2.1817,-2.1826,-2.1835,-2.1864,-2.1875,-2.1736,-2.1735,-2.1735,-2.1735,0,-2.1779,-2.1796,-2.1822,-2.1818,-2.1824,-2.1851,-2.1822,-2.1832,-2.1809,-2.1794,-2.1824,-2.1814,-2.1822,-2.1829,-2.1808,-2.1867,-2.1853,-2.1823,-2.1779,-2.1852,-2.1879,-2.1889,-2.1742,-2.174,-2.1739,-2.1738,0,0,-2.1911,-2.1886,-2.1896,-2.1894,-2.188,-2.1893,-2.1919,-2.1924,-2.1934,-2.1932,-2.1954,-2.1973,-2.1944,-2.1947,-2.1924,-2.1947,-2.2015,-2.1914,-2.1913,-2.1934,-2.208,-2.2104,-2.2117,-2.1995,-2.1997,-2.1998,-2.2081,0,-2.1993,-2.2035,-2.2004,-2.2051,-2.2067,-2.2021,-2.2043,-2.2038,-2.2024,-2.2036,-2.202,-2.2034,-2.1995,-2.1997,-2.2017,-2.2002,-2.2044,-2.1996,-2.2016,-2.2017,-2.202,-2.2131,-2.2156,-2.2235,-2.2091,-2.2093,-2.2094,0,-2.2096,-2.2098,-2.2146,-2.2128,-2.2134,-2.2154,-2.2157,-2.2168,-2.2161,-2.2149,-2.2151,-2.2123,-2.2148,-2.2103,-2.2137,-2.2105,-2.2111,-2.2105,-2.2108,-2.211,-2.2061,-2.2137,-2.2259,-2.2271,-2.211,-2.2109,-2.2107,0,-2.2189,-2.2203,-2.2233,-2.2232,-2.2213,-2.2228,-2.2221,-2.2212,-2.2217,-2.2219,-2.2222,-2.2228,-2.2232,-2.2237,-2.2211,-2.2181,-2.2249,-2.2203,-2.2242,-2.2242,-2.2259,-2.2259,-2.2385,-2.2261,-2.2261,-2.2261,-2.2261,0,-2.2285,-2.2317,-2.2274,-2.2293,-2.2327,-2.2292,-2.2327,-2.2315,-2.2307,-2.2324,-2.2285,-2.2301,-2.2265,-2.2279,-2.2259,-2.229,-2.2292,-2.2284,-2.2279,-2.2288,-2.229,-2.2293,-2.2288,-2.2264,-2.2263,-2.2263,-2.2262,0,-2.2395,-2.2368,-2.2398,-2.2376,-2.2372,-2.2398,-2.238,-2.2397,-2.2379,-2.2401,-2.2404,-2.2377,-2.239,-2.2364,-2.2375,-2.2361,-2.2406,-2.2392,-2.2409,-2.2405,-2.2445,-2.2443,-2.258,-2.2596,-2.2461,-2.2462,-2.2463,0,-2.2459,-2.2482,-2.2462,-2.247,-2.2464,-2.2477,-2.2482,-2.2447,-2.2454,-2.2447,-2.2466,-2.2475,-2.2482,-2.2506,-2.2488,-2.2496,-2.2482,-2.2529,-2.2483,-2.2492,-2.2484,-2.2483,-2.2486,-2.2539,-2.2541,-2.2542,-2.2543,0,-2.2576,-2.2561,-2.2569,-2.2571,-2.2577,-2.2578,-2.2576,-2.2585,-2.2548,-2.2558,-2.257,-2.2575,-2.2584,-2.2595,-2.2599,-2.2592,-2.2563,-2.2558,-2.2567,-2.2579,-2.2588,-2.2584,-2.2436,-2.2555,-2.2554,-2.2553,-2.2553,-2.2552,-2.2666,-2.2684,-2.2673,-2.2682,-2.2677,-2.2676,-2.269,-2.2674,-2.2683,-2.2688,-2.2667,-2.2684,-2.2676,-2.2677,-2.2674,-2.2688,-2.2667,-2.2681,-2.2684,-2.2689,-2.2696,-2.2584,-2.2688,-2.2688,-2.2687,-2.2687,-2.2687,0,-2.2782,-2.2772,-2.2781,-2.2778,-2.2786,-2.2755,-2.2751,-2.276,-2.2775,-2.2769,-2.2775,-2.279,-2.28,-2.2782,-2.2789,-2.2804,-2.279,-2.2807,-2.2806,-2.2806,-2.2713,-2.2705,-2.2818,-2.2818,-2.2818,-2.2818,-2.2818,-2.2817,-2.2844,-2.2873,-2.2856,-2.2883,-2.2872,-2.2888,-2.2888,-2.2887,-2.2882,-2.29,-2.2907,-2.2895,-2.2884,-2.289,-2.2898,-2.2893,-2.2898,-2.292,-2.291,-2.2825,-2.2812,-2.28,-2.2792,-2.2921,-2.2921,-2.3001,-2.3002,-2.3002]}]]